TOURFACTS.DK  
Stats and Facts from Tour de France.

Tour de France 2018 starts in 257 days
  Riders   Stages   Teams   Summits   Yearly  


 
Search by year

 2017 - St. 21:  14824 starters.
  5131 different riders.
  634 teams.
  2232 stages.
  454 restdays.
  439589.60 km.
  5653 abandonnees.


Top 3
Christopher Froome86:20:55
Rigoberto Uran86:21:49
Romain Bardet86:23:15
Warren Barguil169 pt.
Primoz Roglic80 pt.
Thomas De Gendt64 pt.
Michael Matthews359 pt.
André Greipel234 pt.
Edvald Boasson Hagen220 pt.
Simon Yates86:27:09
Louis Meintjes86:29:15
Emanuel Buchmann86:54:16
Facts from Tour de France 2013
  |   Stages.  |   Stage winners.  |   Days in yellow  |   Average speed.  |   Route.  |   Teams.  |   All riders.  |   Rookies.  |   Withdrawls.  |  

  |   GC.  |   Polka  |   Green  |   White  |   Summits. (In tour)  |   Summits. (Points)  |   Miscellaneous.  |  

Stage 16 on 16 - 07 - 2013
         Owning:    Christopher Froome    
Pick a stage:  1 2 3 4 5 6 7 8 9 10 11 12 13 14 15 16 17 18 19 20 21
  Vaison-la-RomaineGap | Dist: 168.00 km.
Cat: 3Côte de la Montagne de BluyeLUXLaurent Didier
1 points
 
Cat: 2Col de MacuègneNEDJohnny Hoogerland
5 points
 
Cat: 2Col de MansePORRui Costa
5 points
 

Average speed for all riders in stage:  40,496 km./hr.
    Place:Name:Team:Time:Km/h:
PORRui CostaESPMovistar Team03:52:45  +  00:00:00=43,308 
FRAChristophe RiblonFRAAg2r La Mondiale03:53:27  +  00:00:42=43,178 
FRAArnold JeannessonFRAFDJ.fr03:53:27  +  00:00:42=43,178 
4 FRAJérôme CoppelFRACofidis – Solutions Crédits03:53:27  +  00:00:42=43,178 
5 GERAndréas KlödenLUXRadioShack Leopard03:53:27  +  00:00:42=43,178 
6 NEDTom DumoulinNLDArgos–Shimano03:53:45  +  00:01:00=43,123 
7 ESPMikel AstarlozaESPEuskaltel - Euskadi03:53:46  +  00:01:01=43,120 
8 BELPhilippe GilbertUSABMC Racing Team03:53:49  +  00:01:04=43,111 
9 AUSCameron MeyerAUSOrica - GreenEDGE03:53:49  +  00:01:04=43,111 
10 URSRamunas NavardauskasUSAGarmin Sharp03:53:49  +  00:01:04=43,111 
11 SVKPeter VelitsBELOmega Pharma – Quick Step03:53:49  +  00:01:04=43,111 
12 FRACyril GautierFRATeam Europcar03:53:49  +  00:01:04=43,111 
13 RUSYury TrofimovRUSTeam Katusha03:53:49  +  00:01:04=43,111 
14 LUXLaurent DidierLUXRadioShack Leopard03:53:49  +  00:01:04=43,111 
15 BELThomas De GendtNLDVacansoleil - DCM03:53:54  +  00:01:09=43,095 
16 FRANicolas RocheDNKTeam Saxo-Tinkoff03:54:11  +  00:01:26=43,043 
17 FRAJean-Marc MarinoFRASojasun03:54:11  +  00:01:26=43,043 
18 ESPDaniel NavarroFRACofidis – Solutions Crédits03:54:11  +  00:01:26=43,043 
19 FRAThomas VoecklerFRATeam Europcar03:54:11  +  00:01:26=43,043 
20 NEDJohnny HoogerlandNLDVacansoleil - DCM03:55:06  +  00:02:21=42,875 
21 FRATony GallopinLUXRadioShack Leopard03:55:11  +  00:02:26=42,860 
22 ITAManuele MoriITALampre-Merida03:56:19  +  00:03:34=42,655 
23 FRABlel KadriFRAAg2r La Mondiale03:56:27  +  00:03:42=42,631 
24 SUIMichael AlbasiniAUSOrica - GreenEDGE03:56:27  +  00:03:42=42,631 
25 AUSAdam HansenBELLotto-Belisol Team03:56:27  +  00:03:42=42,631 
26 ITAManuel QuinziatoUSABMC Racing Team03:58:12  +  00:05:27=42,317 
27 COLNairo QuintanaESPMovistar Team04:03:53  +  00:11:08=41,331 
28 ESPJoaquim RodriguezRUSTeam Katusha04:03:53  +  00:11:08=41,331 
29 KENChristopher FroomeGBRSky Procycling04:03:53  +  00:11:08=41,331 
30 NEDBauke MollemaNLDBelkin Pro Cycling04:03:53  +  00:11:08=41,331 
31 CZERoman KreuzigerDNKTeam Saxo-Tinkoff04:03:53  +  00:11:08=41,331 
32 ESPAlberto ContadorDNKTeam Saxo-Tinkoff04:03:53  +  00:11:08=41,331 
33 ESPAlejandro ValverdeESPMovistar Team04:03:53  +  00:11:08=41,331 
34 AUSRichie PorteGBRSky Procycling04:03:53  +  00:11:08=41,331 
35 USAAndrew TalanskyUSAGarmin Sharp04:04:53  +  00:12:08=41,162 
36 FRAJean-Christophe PeraudFRAAg2r La Mondiale04:04:53  +  00:12:08=41,162 
37 BELMaxime MonfortLUXRadioShack Leopard04:04:53  +  00:12:08=41,162 
38 SUIJakob FuglsangKAZAstana Pro Team04:04:53  +  00:12:08=41,162 
39 NEDLaurens ten DamNLDBelkin Pro Cycling04:04:53  +  00:12:08=41,162 
40 AUSCadel EvansUSABMC Racing Team04:04:53  +  00:12:08=41,162 
41 SUISteve MorabitoUSABMC Racing Team04:04:53  +  00:12:08=41,162 
42 FRARomain BardetFRAAg2r La Mondiale04:04:53  +  00:12:08=41,162 
43 ENGDaniel MartinUSAGarmin Sharp04:04:53  +  00:12:08=41,162 
44 AUSMichael RogersDNKTeam Saxo-Tinkoff04:04:53  +  00:12:08=41,162 
45 FRASylvain ChavanelBELOmega Pharma – Quick Step04:05:32  +  00:12:47=41,053 
46 POLMichal KwiatkowskiBELOmega Pharma – Quick Step04:05:32  +  00:12:47=41,053 
47 FRAJohn GadretFRAAg2r La Mondiale04:05:32  +  00:12:47=41,053 
48 COLJosé SerpaITALampre-Merida04:05:32  +  00:12:47=41,053 
49 FRARudy MolardFRACofidis – Solutions Crédits04:05:32  +  00:12:47=41,053 
50 NEDRobert GesinkNLDBelkin Pro Cycling04:05:32  +  00:12:47=41,053 
51 FRAHubert DupontFRAAg2r La Mondiale04:05:32  +  00:12:47=41,053 
52 NEDBram TankinkNLDBelkin Pro Cycling04:05:32  +  00:12:47=41,053 
53 ESPMikel NieveESPEuskaltel - Euskadi04:05:32  +  00:12:47=41,053 
54 FRAJulien El FarèsFRASojasun04:05:46  +  00:13:01=41,015 
55 FRAAlexis VuillermozFRASojasun04:05:46  +  00:13:01=41,015 
56 BELJan BakelantsLUXRadioShack Leopard04:05:46  +  00:13:01=41,015 
57 LUXAndy SchleckLUXRadioShack Leopard04:05:46  +  00:13:01=41,015 
58 FRAPierre RollandFRATeam Europcar04:05:46  +  00:13:01=41,015 
59 NEDWout PoelsNLDVacansoleil - DCM04:05:46  +  00:13:01=41,015 
60 ESPDaniel MorenoRUSTeam Katusha04:05:46  +  00:13:01=41,015 
61 FRAMaxime MederelFRASojasun04:05:46  +  00:13:01=41,015 
62 FRAArthur VichotFRAFDJ.fr04:07:55  +  00:15:10=40,659 
63 FRAAlexandre GeniezFRAFDJ.fr04:07:55  +  00:15:10=40,659 
64 ESPLuis Angel MateFRACofidis – Solutions Crédits04:07:55  +  00:15:10=40,659 
65 ESPGorka Izaguirre InsaustiESPEuskaltel - Euskadi04:07:55  +  00:15:10=40,659 
66 NEDLieuwe WestraNLDVacansoleil - DCM04:08:26  +  00:15:41=40,574 
67 ESPJuan José OrozESPEuskaltel - Euskadi04:08:26  +  00:15:41=40,574 
68 RUSEduard VorganovRUSTeam Katusha04:08:26  +  00:15:41=40,574 
69 ESPJosé Joaquin RojasESPMovistar Team04:09:39  +  00:16:54=40,377 
70 POLPrzemyslaw NiemiecITALampre-Merida04:09:39  +  00:16:54=40,377 
71 ITAEnrico GasparottoKAZAstana Pro Team04:09:39  +  00:16:54=40,377 
72 BLRKanstantin SivtsovGBRSky Procycling04:09:39  +  00:16:54=40,377 
73 CRCAndrey AmadorESPMovistar Team04:09:39  +  00:16:54=40,377 
74 ESPDavid LopezGBRSky Procycling04:09:39  +  00:16:54=40,377 
75 FRACyril LemoineFRASojasun04:10:44  +  00:17:59=40,202 
76 FRAPierrick FédrigoFRAFDJ.fr04:11:13  +  00:18:28=40,125 
77 BELBart De ClercqBELLotto-Belisol Team04:11:13  +  00:18:28=40,125 
78 GERSimon GeschkeNLDArgos–Shimano04:12:01  +  00:19:16=39,997 
79 GERJohannes FröhlingerNLDArgos–Shimano04:12:01  +  00:19:16=39,997 
80 ESPJon Izaguirre InsaustiESPEuskaltel - Euskadi04:12:01  +  00:19:16=39,997 
81 FRASébastien MinardFRAAg2r La Mondiale04:12:01  +  00:19:16=39,997 
82 FRAAnthony DelaplaceFRASojasun04:12:01  +  00:19:16=39,997 
83 FRAGuillaume LevarletFRACofidis – Solutions Crédits04:12:01  +  00:19:16=39,997 
84 USATejay Van GarderenUSABMC Racing Team04:12:01  +  00:19:16=39,997 
85 SLOKristjan KorenITACannondale Pro Cycling04:12:01  +  00:19:16=39,997 
86 FRAAmaël MoinardUSABMC Racing Team04:12:01  +  00:19:16=39,997 
87 ESPHaimar ZubeldiaLUXRadioShack Leopard04:12:01  +  00:19:16=39,997 
88 ARGJuan Antonio FlechaNLDVacansoleil - DCM04:12:01  +  00:19:16=39,997 
89 ESPImanol ErvitiESPMovistar Team04:12:01  +  00:19:16=39,997 
90 FRASamuel DumoulinFRAAg2r La Mondiale04:12:01  +  00:19:16=39,997 
91 UZBSergey LagutinNLDVacansoleil - DCM04:12:01  +  00:19:16=39,997 
92 ITAFrancesco GavazziKAZAstana Pro Team04:12:01  +  00:19:16=39,997 
93 URSRein TaaramäeFRACofidis – Solutions Crédits04:12:01  +  00:19:16=39,997 
94 MLTDavid MillarUSAGarmin Sharp04:13:42  +  00:20:57=39,732 
95 AUSStuart O'GradyAUSOrica - GreenEDGE04:13:42  +  00:20:57=39,732 
96 BLRAliaksandr KuchynskiRUSTeam Katusha04:13:42  +  00:20:57=39,732 
97 ITAMatteo TosattoDNKTeam Saxo-Tinkoff04:13:42  +  00:20:57=39,732 
98 NORLars Petter NordhaugNLDBelkin Pro Cycling04:13:42  +  00:20:57=39,732 
99 AUSSimon GerransAUSOrica - GreenEDGE04:13:42  +  00:20:57=39,732 
100 USABrent BookwalterUSABMC Racing Team04:13:42  +  00:20:57=39,732 
101 CANDavid VeilleuxFRATeam Europcar04:13:42  +  00:20:57=39,732 
102 FRAKévin RezaFRATeam Europcar04:13:42  +  00:20:57=39,732 
103 ESPAlberto LosadaRUSTeam Katusha04:13:42  +  00:20:57=39,732 
104 URSGatis SmukulisRUSTeam Katusha04:13:42  +  00:20:57=39,732 
105 NEDBoy van PoppelNLDVacansoleil - DCM04:13:42  +  00:20:57=39,732 
106 GERTony MartinBELOmega Pharma – Quick Step04:13:42  +  00:20:57=39,732 
107 ESPMarkel IrizarLUXRadioShack Leopard04:13:42  +  00:20:57=39,732 
108 DENLars BakBELLotto-Belisol Team04:13:42  +  00:20:57=39,732 
109 ESPJesus  HernandezDNKTeam Saxo-Tinkoff04:13:42  +  00:20:57=39,732 
110 ITADamiano CunegoITALampre-Merida04:13:42  +  00:20:57=39,732 
111 NZLGregory HendersonBELLotto-Belisol Team04:13:42  +  00:20:57=39,732 
112 USATom DanielsonUSAGarmin Sharp04:13:42  +  00:20:57=39,732 
113 PORSergio PaulinhoDNKTeam Saxo-Tinkoff04:13:42  +  00:20:57=39,732 
114 JPNYukiya ArashiroFRATeam Europcar04:13:42  +  00:20:57=39,732 
115 FRAJérôme CousinFRATeam Europcar04:13:42  +  00:20:57=39,732 
116 NZLJack BauerUSAGarmin Sharp04:13:42  +  00:20:57=39,732 
117 ESPRubén PlazaESPMovistar Team04:13:42  +  00:20:57=39,732 
118 CANRyder HesjedalUSAGarmin Sharp04:13:42  +  00:20:57=39,732 
119 RUSPavel BruttRUSTeam Katusha04:13:42  +  00:20:57=39,732 
120 ESPRuben PerezESPEuskaltel - Euskadi04:13:42  +  00:20:57=39,732 
121 ESPJonathan CastroviejoESPMovistar Team04:13:42  +  00:20:57=39,732 
122 FRARomain SicardESPEuskaltel - Euskadi04:13:42  +  00:20:57=39,732 
123 ITAAlessandro De MarchiITACannondale Pro Cycling04:13:42  +  00:20:57=39,732 
124 BELJürgen RoelandtsBELLotto-Belisol Team04:13:42  +  00:20:57=39,732 
125 FRAJérôme PineauBELOmega Pharma – Quick Step04:14:31  +  00:21:46=39,604 
126 GERJens VoigtLUXRadioShack Leopard04:14:31  +  00:21:46=39,604 
127 NEDKoen De KortNLDArgos–Shimano04:14:31  +  00:21:46=39,604 
128 GERAndré GreipelBELLotto-Belisol Team04:14:31  +  00:21:46=39,604 
129 GERMarcus BurghardtUSABMC Racing Team04:14:31  +  00:21:46=39,604 
130 ITAFabio SabatiniITACannondale Pro Cycling04:14:31  +  00:21:46=39,604 
131 ITAAlan MarangoniITACannondale Pro Cycling04:14:31  +  00:21:46=39,604 
132 GERMarcel SiebergBELLotto-Belisol Team04:14:31  +  00:21:46=39,604 
133 POLMaciej BodnarITACannondale Pro Cycling04:14:31  +  00:21:46=39,604 
134 NEDLars BoomNLDBelkin Pro Cycling04:14:31  +  00:21:46=39,604 
135 NEDAlbert TimmerNLDArgos–Shimano04:14:31  +  00:21:46=39,604 
136 ITAMoreno MoserITACannondale Pro Cycling04:14:31  +  00:21:46=39,604 
137 SVKPeter SaganITACannondale Pro Cycling04:14:31  +  00:21:46=39,604 
138 IOMMark CavendishBELOmega Pharma – Quick Step04:14:31  +  00:21:46=39,604 
139 ITAElia FavilliITALampre-Merida04:14:31  +  00:21:46=39,604 
140 BELFrederik WillemsBELLotto-Belisol Team04:14:31  +  00:21:46=39,604 
141 NEDRoy CurversNLDArgos–Shimano04:14:31  +  00:21:46=39,604 
142 GERJohn DegenkolbNLDArgos–Shimano04:14:31  +  00:21:46=39,604 
143 NORAlexander KristoffRUSTeam Katusha04:14:31  +  00:21:46=39,604 
144 NEDTom VeelersNLDArgos–Shimano04:14:31  +  00:21:46=39,604 
145 ESPIgor AntonESPEuskaltel - Euskadi04:14:31  +  00:21:46=39,604 
146 ESPJuan LobatoESPEuskaltel - Euskadi04:14:31  +  00:21:46=39,604 
147 NEDTom LeezerNLDBelkin Pro Cycling04:14:31  +  00:21:46=39,604 
148 GERMarcel KittelNLDArgos–Shimano04:14:31  +  00:21:46=39,604 
149 FRAWilliam BonnetFRAFDJ.fr04:14:31  +  00:21:46=39,604 
150 FRAJulien SimonFRASojasun04:14:31  +  00:21:46=39,604 
151 ESPEgoitz GarciaFRACofidis – Solutions Crédits04:14:31  +  00:21:46=39,604 
152 BELGert SteegmansBELOmega Pharma – Quick Step04:14:31  +  00:21:46=39,604 
153 BRAMurilo Antonio FischerFRAFDJ.fr04:14:31  +  00:21:46=39,604 
154 ITADaniele BennatiDNKTeam Saxo-Tinkoff04:14:31  +  00:21:46=39,604 
155 FRAJérémy RoyFRAFDJ.fr04:14:31  +  00:21:46=39,604 
156 NEDNiki TerpstraBELOmega Pharma – Quick Step04:14:31  +  00:21:46=39,604 
157 BELMaarten WynantsNLDBelkin Pro Cycling04:14:31  +  00:21:46=39,604 
158 AUSBrett LancasterAUSOrica - GreenEDGE04:14:31  +  00:21:46=39,604 
159 AUSSimon ClarkeAUSOrica - GreenEDGE04:14:31  +  00:21:46=39,604 
160 RSADaryl ImpeyAUSOrica - GreenEDGE04:14:31  +  00:21:46=39,604 
161 AUSMatthew GossAUSOrica - GreenEDGE04:14:31  +  00:21:46=39,604 
162 FRAYohann GèneFRATeam Europcar04:14:31  +  00:21:46=39,604 
163 BELSep VanmarckeNLDBelkin Pro Cycling04:14:31  +  00:21:46=39,604 
164 KAZDmitriy MuravyevKAZAstana Pro Team04:14:31  +  00:21:46=39,604 
165 DENBrian VandborgITACannondale Pro Cycling04:14:31  +  00:21:46=39,604 
166 CANSvein TuftAUSOrica - GreenEDGE04:14:31  +  00:21:46=39,604 
167 KAZAssan BazayevKAZAstana Pro Team04:14:31  +  00:21:46=39,604 
168 FRABrice FeilluFRASojasun04:14:31  +  00:21:46=39,604 
169 KAZAlexey LutsenkoKAZAstana Pro Team04:14:31  +  00:21:46=39,604 
170 ENGIan StannardGBRSky Procycling04:14:31  +  00:21:46=39,604 
171 ITAMatteo TrentinBELOmega Pharma – Quick Step04:14:31  +  00:21:46=39,604 
172 WALGeraint ThomasGBRSky Procycling04:14:31  +  00:21:46=39,604 
173 ITADavide MalacarneFRATeam Europcar04:14:31  +  00:21:46=39,604 
174 IOMPeter KennaughGBRSky Procycling04:14:31  +  00:21:46=39,604 
175 FRAJonathan HivertFRASojasun04:14:31  +  00:21:46=39,604 
176 FRAChristophe Le MevelFRACofidis – Solutions Crédits04:14:31  +  00:21:46=39,604 
177 ITARoberto FerrariITALampre-Merida04:14:31  +  00:21:46=39,604 
178 ITADavide CimolaiITALampre-Merida04:14:31  +  00:21:46=39,604 
179 BELKris BoeckmansNLDVacansoleil - DCM04:14:46  +  00:22:01=39,566 

Withdrawls: 2
 
Rider
Team
Reason
71  FRAThibaut PinotFRAFDJ.frDid not start
208  NEDDanny van PoppelNLDVacansoleil - DCMDid not start

Todays birthdays.

1870  Hippolyte Pagie
1884  Henri Devroye
1886  Ernest Ricaux
1896  Andre Zonnequin
1897  Jean Kienlen
1903  Robert Brugére
1930  Fred De Bruyne
1930  Jean-Claude Grèt
1932  Vito Favero
1932  Norbert Kerckhove
1946  Ronald De Witte
1967  Johan Verstrepen
1969  Orlando Sergio Gomes